owner,sensor,date,latitude,longitude,vertical_datum,wind_speed,wind_to_direction,wind_speed_of_gust,qcFlag 
TCOON,ioos:station:TCOON:006:1,2012-01-01T00:00:00Z,27.8217,-97.2040,0.0,4.5,148.0,6.0,'11111222,11111222,11111222' 
TCOON,ioos:station:TCOON:006:1,2012-01-01T01:00:00Z,27.8217,-97.2040,0.0,3.2,156.0,5.1,'11111222,11111222,11111222' 
TCOON,ioos:station:TCOON:006:1,2012-01-01T02:00:00Z,27.8217,-97.2040,0.0,3.3,169.0,4.7,'11111222,11111222,11111222' 
TCOON,ioos:station:TCOON:006:1,2012-01-01T03:00:00Z,27.8217,-97.2040,0.0,1.5,178.0,2.6,'11111222,11111222,11111222' 
TCOON,ioos:station:TCOON:006:1,2012-01-01T04:00:00Z,27.8217,-97.2040,0.0,2.5,164.0,2.9,'11111222,11111222,11111222' 
TCOON,ioos:station:TCOON:006:1,2012-01-01T05:00:00Z,27.8217,-97.2040,0.0,1.1,164.0,1.5,'11111222,11111222,11111222' 
TCOON,ioos:station:TCOON:006:1,2012-01-01T06:00:00Z,27.8217,-97.2040,0.0,2.3,162.0,4.0,'11111222,11111222,11111222' 
TCOON,ioos:station:TCOON:006:1,2012-01-01T07:00:00Z,27.8217,-97.2040,0.0,2.0,179.0,2.8,'11111222,11111222,11111222' 
TCOON,ioos:station:TCOON:006:1,2012-01-01T08:00:00Z,27.8217,-97.2040,0.0,0.2,241.0,1.9,'11111222,11111222,11111222' 
TCOON,ioos:station:TCOON:006:1,2012-01-01T09:00:00Z,27.8217,-97.2040,0.0,1.5,257.0,1.7,'11111222,11111222,11111222' 
TCOON,ioos:station:TCOON:006:1,2012-01-01T10:00:00Z,27.8217,-97.2040,0.0,1.6,335.0,2.6,'11111222,11111222,11111222' 
TCOON,ioos:station:TCOON:006:1,2012-01-01T11:00:00Z,27.8217,-97.2040,0.0,3.4,343.0,5.6,'11111222,11111222,11111222' 
TCOON,ioos:station:TCOON:006:1,2012-01-01T12:00:00Z,27.8217,-97.2040,0.0,3.1,2.0,8.6,'11111222,11111222,11111222' 
TCOON,ioos:station:TCOON:006:1,2012-01-01T13:00:00Z,27.8217,-97.2040,0.0,3.6,5.0,7.8,'11111222,11111222,11111222' 
TCOON,ioos:station:TCOON:006:1,2012-01-01T14:00:00Z,27.8217,-97.2040,0.0,3.5,4.0,7.5,'11111222,11111222,11111222' 
TCOON,ioos:station:TCOON:006:1,2012-01-01T15:00:00Z,27.8217,-97.2040,0.0,3.8,3.0,6.6,'11111222,11111222,11111222' 
TCOON,ioos:station:TCOON:006:1,2012-01-01T16:00:00Z,27.8217,-97.2040,0.0,3.5,359.0,6.1,'11111222,11111222,11111222' 
TCOON,ioos:station:TCOON:006:1,2012-01-01T17:00:00Z,27.8217,-97.2040,0.0,2.8,3.0,6.4,'11111222,11111222,11111222' 
TCOON,ioos:station:TCOON:006:1,2012-01-01T18:00:00Z,27.8217,-97.2040,0.0,2.8,357.0,8.3,'11111222,11111222,11111222' 
TCOON,ioos:station:TCOON:006:1,2012-01-01T19:00:00Z,27.8217,-97.2040,0.0,3.0,357.0,5.9,'11111222,11111222,11111222' 
TCOON,ioos:station:TCOON:006:1,2012-01-01T20:00:00Z,27.8217,-97.2040,0.0,3.0,6.0,6.2,'11111222,11111222,11111222' 
TCOON,ioos:station:TCOON:006:1,2012-01-01T21:00:00Z,27.8217,-97.2040,0.0,2.6,358.0,7.3,'11111222,11111222,11111222' 
TCOON,ioos:station:TCOON:006:1,2012-01-01T22:00:00Z,27.8217,-97.2040,0.0,3.0,349.0,5.6,'11111222,11111222,11111222' 
TCOON,ioos:station:TCOON:006:1,2012-01-01T23:00:00Z,27.8217,-97.2040,0.0,2.4,346.0,5.8,'11111222,11111222,11111222' 
TCOON,ioos:station:TCOON:006:1,2012-01-02T00:00:00Z,27.8217,-97.2040,0.0,3.3,341.0,5.4,'11111222,11111222,11111222' 
TCOON,ioos:station:TCOON:006:1,2012-01-02T01:00:00Z,27.8217,-97.2040,0.0,2.2,356.0,8.1,'11111222,11111222,11111222' 
TCOON,ioos:station:TCOON:006:1,2012-01-02T02:00:00Z,27.8217,-97.2040,0.0,2.0,349.0,4.2,'11111222,11111222,11111222' 
TCOON,ioos:station:TCOON:006:1,2012-01-02T03:00:00Z,27.8217,-97.2040,0.0,1.7,353.0,3.3,'11111222,11111222,11111222' 
TCOON,ioos:station:TCOON:006:1,2012-01-02T04:00:00Z,27.8217,-97.2040,0.0,2.0,346.0,3.7,'11111222,11111222,11111222' 
TCOON,ioos:station:TCOON:006:1,2012-01-02T05:00:00Z,27.8217,-97.2040,0.0,2.2,334.0,4.0,'11111222,11111222,11111222' 
TCOON,ioos:station:TCOON:006:1,2012-01-02T08:00:00Z,27.8217,-97.2040,0.0,1.8,345.0,3.1,'11111222,11111222,11111222' 
TCOON,ioos:station:TCOON:006:1,2012-01-02T09:00:00Z,27.8217,-97.2040,0.0,2.0,340.0,3.4,'11111222,11111222,11111222' 
TCOON,ioos:station:TCOON:006:1,2012-01-02T10:00:00Z,27.8217,-97.2040,0.0,1.8,335.0,2.9,'11111222,11111222,11111222' 
TCOON,ioos:station:TCOON:006:1,2012-01-02T11:00:00Z,27.8217,-97.2040,0.0,1.5,339.0,2.4,'11111222,11111222,11111222' 
TCOON,ioos:station:TCOON:006:1,2012-01-02T12:00:00Z,27.8217,-97.2040,0.0,2.2,334.0,3.4,'11111222,11111222,11111222' 
TCOON,ioos:station:TCOON:006:1,2012-01-02T13:00:00Z,27.8217,-97.2040,0.0,2.0,338.0,3.5,'11111222,11111222,11111222' 
TCOON,ioos:station:TCOON:006:1,2012-01-02T14:00:00Z,27.8217,-97.2040,0.0,1.7,11.0,3.8,'11111222,11111222,11111222' 
TCOON,ioos:station:TCOON:006:1,2012-01-02T15:00:00Z,27.8217,-97.2040,0.0,5.4,25.0,10.0,'11111222,11111222,11111222' 
TCOON,ioos:station:TCOON:006:1,2012-01-02T16:00:00Z,27.8217,-97.2040,0.0,4.3,28.0,8.8,'11111222,11111222,11111222' 
TCOON,ioos:station:TCOON:006:1,2012-01-02T17:00:00Z,27.8217,-97.2040,0.0,4.6,35.0,8.2,'11111222,11111222,11111222' 
TCOON,ioos:station:TCOON:006:1,2012-01-02T18:00:00Z,27.8217,-97.2040,0.0,4.6,51.0,7.0,'11111222,11111222,11111222' 
TCOON,ioos:station:TCOON:006:1,2012-01-02T19:00:00Z,27.8217,-97.2040,0.0,4.3,55.0,5.9,'11111222,11111222,11111222' 
TCOON,ioos:station:TCOON:006:1,2012-01-02T20:00:00Z,27.8217,-97.2040,0.0,2.6,71.0,4.3,'11111222,11111222,11111222' 
TCOON,ioos:station:TCOON:006:1,2012-01-02T21:00:00Z,27.8217,-97.2040,0.0,2.8,78.0,3.5,'11111222,11111222,11111222' 
TCOON,ioos:station:TCOON:006:1,2012-01-02T22:00:00Z,27.8217,-97.2040,0.0,1.6,59.0,2.3,'11111222,11111222,11111222' 
TCOON,ioos:station:TCOON:006:1,2012-01-02T23:00:00Z,27.8217,-97.2040,0.0,2.4,181.0,3.3,'11111222,11111222,11111222' 
TCOON,ioos:station:TCOON:006:1,2012-01-03T00:00:00Z,27.8217,-97.2040,0.0,2.3,186.0,2.9,'11111222,11111222,11111222' 
TCOON,ioos:station:TCOON:006:1,2012-01-03T01:00:00Z,27.8217,-97.2040,0.0,1.5,229.0,2.4,'11111222,11111222,11111222' 
TCOON,ioos:station:TCOON:006:1,2012-01-03T02:00:00Z,27.8217,-97.2040,0.0,1.0,269.0,1.4,'11111222,11111222,11111222' 
TCOON,ioos:station:TCOON:006:1,2012-01-03T03:00:00Z,27.8217,-97.2040,0.0,1.8,272.0,2.2,'11111222,11111222,11111222' 
TCOON,ioos:station:TCOON:006:1,2012-01-03T04:00:00Z,27.8217,-97.2040,0.0,2.1,296.0,2.8,'11111222,11111222,11111222' 
TCOON,ioos:station:TCOON:006:1,2012-01-03T05:00:00Z,27.8217,-97.2040,0.0,2.4,332.0,3.2,'11111222,11111222,11111222' 
TCOON,ioos:station:TCOON:006:1,2012-01-03T06:00:00Z,27.8217,-97.2040,0.0,1.9,346.0,3.6,'11111222,11111222,11111222' 
TCOON,ioos:station:TCOON:006:1,2012-01-03T07:00:00Z,27.8217,-97.2040,0.0,1.6,3.0,3.6,'11111222,11111222,11111222' 
TCOON,ioos:station:TCOON:006:1,2012-01-03T08:00:00Z,27.8217,-97.2040,0.0,1.5,7.0,2.8,'11111222,11111222,11111222' 
TCOON,ioos:station:TCOON:006:1,2012-01-03T09:00:00Z,27.8217,-97.2040,0.0,3.2,22.0,3.9,'11111222,11111222,11111222' 
TCOON,ioos:station:TCOON:006:1,2012-01-03T10:00:00Z,27.8217,-97.2040,0.0,2.3,23.0,3.4,'11111222,11111222,11111222' 
TCOON,ioos:station:TCOON:006:1,2012-01-03T11:00:00Z,27.8217,-97.2040,0.0,1.0,2.0,2.9,'11111222,11111222,11111222' 
TCOON,ioos:station:TCOON:006:1,2012-01-03T12:00:00Z,27.8217,-97.2040,0.0,1.6,353.0,2.5,'11111222,11111222,11111222' 
TCOON,ioos:station:TCOON:006:1,2012-01-03T13:00:00Z,27.8217,-97.2040,0.0,1.7,357.0,2.6,'11111222,11111222,11111222' 
TCOON,ioos:station:TCOON:006:1,2012-01-03T14:00:00Z,27.8217,-97.2040,0.0,1.8,6.0,3.5,'11111222,11111222,11111222' 
TCOON,ioos:station:TCOON:006:1,2012-01-03T15:00:00Z,27.8217,-97.2040,0.0,2.5,36.0,4.3,'11111222,11111222,11111222' 
TCOON,ioos:station:TCOON:006:1,2012-01-03T16:00:00Z,27.8217,-97.2040,0.0,4.3,52.0,6.1,'11111222,11111222,11111222' 
TCOON,ioos:station:TCOON:006:1,2012-01-03T17:00:00Z,27.8217,-97.2040,0.0,4.0,46.0,6.4,'11111222,11111222,11111222' 
TCOON,ioos:station:TCOON:006:1,2012-01-03T18:00:00Z,27.8217,-97.2040,0.0,4.1,51.0,5.5,'11111222,11111222,11111222' 
TCOON,ioos:station:TCOON:006:1,2012-01-03T19:00:00Z,27.8217,-97.2040,0.0,3.2,56.0,4.9,'11111222,11111222,11111222' 
TCOON,ioos:station:TCOON:006:1,2012-01-03T20:00:00Z,27.8217,-97.2040,0.0,3.1,67.0,4.7,'11111222,11111222,11111222' 
TCOON,ioos:station:TCOON:006:1,2012-01-03T21:00:00Z,27.8217,-97.2040,0.0,2.6,71.0,4.7,'11111222,11111222,11111222' 
TCOON,ioos:station:TCOON:006:1,2012-01-03T22:00:00Z,27.8217,-97.2040,0.0,2.4,111.0,3.0,'11111222,11111222,11111222' 
TCOON,ioos:station:TCOON:006:1,2012-01-03T23:00:00Z,27.8217,-97.2040,0.0,1.5,142.0,2.9,'11111222,11111222,11111222' 
TCOON,ioos:station:TCOON:006:1,2012-01-04T00:00:00Z,27.8217,-97.2040,0.0,1.9,126.0,2.6,'11111222,11111222,11111222' 
TCOON,ioos:station:TCOON:006:1,2012-01-04T01:00:00Z,27.8217,-97.2040,0.0,2.7,125.0,3.2,'11111222,11111222,11111222' 
TCOON,ioos:station:TCOON:006:1,2012-01-04T02:00:00Z,27.8217,-97.2040,0.0,2.5,146.0,3.0,'11111222,11111222,11111222' 
TCOON,ioos:station:TCOON:006:1,2012-01-04T03:00:00Z,27.8217,-97.2040,0.0,2.5,148.0,3.5,'11111222,11111222,11111222' 
TCOON,ioos:station:TCOON:006:1,2012-01-04T04:00:00Z,27.8217,-97.2040,0.0,3.5,162.0,4.9,'11111222,11111222,11111222' 
TCOON,ioos:station:TCOON:006:1,2012-01-04T05:00:00Z,27.8217,-97.2040,0.0,3.1,173.0,3.6,'11111222,11111222,11111222' 
TCOON,ioos:station:TCOON:006:1,2012-01-04T06:00:00Z,27.8217,-97.2040,0.0,4.8,178.0,5.9,'11111222,11111222,11111222' 
TCOON,ioos:station:TCOON:006:1,2012-01-04T07:00:00Z,27.8217,-97.2040,0.0,4.5,184.0,5.2,'11111222,11111222,11111222' 
TCOON,ioos:station:TCOON:006:1,2012-01-04T08:00:00Z,27.8217,-97.2040,0.0,2.2,212.0,2.9,'11111222,11111222,11111222' 
TCOON,ioos:station:TCOON:006:1,2012-01-04T09:00:00Z,27.8217,-97.2040,0.0,0.9,222.0,1.2,'11111222,11111222,11111222' 
TCOON,ioos:station:TCOON:006:1,2012-01-04T10:00:00Z,27.8217,-97.2040,0.0,0.8,150.0,1.5,'11111222,11111222,11111222' 
TCOON,ioos:station:TCOON:006:1,2012-01-04T11:00:00Z,27.8217,-97.2040,0.0,1.8,146.0,2.3,'11111222,11111222,11111222' 
TCOON,ioos:station:TCOON:006:1,2012-01-04T12:00:00Z,27.8217,-97.2040,0.0,0.5,46.0,0.8,'11111222,11111222,11111222' 
TCOON,ioos:station:TCOON:006:1,2012-01-04T13:00:00Z,27.8217,-97.2040,0.0,1.4,47.0,1.8,'11111222,11111222,11111222' 
TCOON,ioos:station:TCOON:006:1,2012-01-04T14:00:00Z,27.8217,-97.2040,0.0,2.2,131.0,2.7,'11111222,11111222,11111222' 
TCOON,ioos:station:TCOON:006:1,2012-01-04T15:00:00Z,27.8217,-97.2040,0.0,2.8,166.0,3.4,'11111222,11111222,11111222' 
TCOON,ioos:station:TCOON:006:1,2012-01-04T16:00:00Z,27.8217,-97.2040,0.0,3.6,162.0,5.3,'11111222,11111222,11111222' 
TCOON,ioos:station:TCOON:006:1,2012-01-04T17:00:00Z,27.8217,-97.2040,0.0,2.8,145.0,4.2,'11111222,11111222,11111222' 
TCOON,ioos:station:TCOON:006:1,2012-01-04T18:00:00Z,27.8217,-97.2040,0.0,3.4,165.0,5.2,'11111222,11111222,11111222' 
TCOON,ioos:station:TCOON:006:1,2012-01-04T19:00:00Z,27.8217,-97.2040,0.0,4.2,166.0,4.8,'11111222,11111222,11111222' 
TCOON,ioos:station:TCOON:006:1,2012-01-04T20:00:00Z,27.8217,-97.2040,0.0,2.7,142.0,3.5,'11111222,11111222,11111222' 
TCOON,ioos:station:TCOON:006:1,2012-01-04T21:00:00Z,27.8217,-97.2040,0.0,3.2,110.0,4.4,'11111222,11111222,11111222' 
TCOON,ioos:station:TCOON:006:1,2012-01-04T22:00:00Z,27.8217,-97.2040,0.0,3.3,101.0,4.5,'11111222,11111222,11111222' 
TCOON,ioos:station:TCOON:006:1,2012-01-04T23:00:00Z,27.8217,-97.2040,0.0,2.9,61.0,4.0,'11111222,11111222,11111222' 
TCOON,ioos:station:TCOON:006:1,2012-01-05T00:00:00Z,27.8217,-97.2040,0.0,2.3,51.0,3.3,'11111222,11111222,11111222' 
TCOON,ioos:station:TCOON:006:1,2012-01-05T01:00:00Z,27.8217,-97.2040,0.0,1.8,80.0,2.5,'11111222,11111222,11111222' 
TCOON,ioos:station:TCOON:006:1,2012-01-05T02:00:00Z,27.8217,-97.2040,0.0,2.0,124.0,3.5,'11111222,11111222,11111222' 
TCOON,ioos:station:TCOON:006:1,2012-01-05T03:00:00Z,27.8217,-97.2040,0.0,1.4,141.0,2.5,'11111222,11111222,11111222' 
TCOON,ioos:station:TCOON:006:1,2012-01-05T04:00:00Z,27.8217,-97.2040,0.0,2.6,167.0,2.9,'11111222,11111222,11111222' 
TCOON,ioos:station:TCOON:006:1,2012-01-05T05:00:00Z,27.8217,-97.2040,0.0,3.8,162.0,4.9,'11111222,11111222,11111222' 
TCOON,ioos:station:TCOON:006:1,2012-01-05T06:00:00Z,27.8217,-97.2040,0.0,3.4,163.0,4.0,'11111222,11111222,11111222' 
TCOON,ioos:station:TCOON:006:1,2012-01-05T07:00:00Z,27.8217,-97.2040,0.0,1.9,168.0,2.7,'11111222,11111222,11111222' 
TCOON,ioos:station:TCOON:006:1,2012-01-05T08:00:00Z,27.8217,-97.2040,0.0,1.3,147.0,1.7,'11111222,11111222,11111222' 
TCOON,ioos:station:TCOON:006:1,2012-01-05T09:00:00Z,27.8217,-97.2040,0.0,2.5,22.0,3.1,'11111222,11111222,11111222' 
TCOON,ioos:station:TCOON:006:1,2012-01-05T10:00:00Z,27.8217,-97.2040,0.0,1.4,14.0,3.0,'11111222,11111222,11111222' 
TCOON,ioos:station:TCOON:006:1,2012-01-05T11:00:00Z,27.8217,-97.2040,0.0,2.8,18.0,3.8,'11111222,11111222,11111222' 
TCOON,ioos:station:TCOON:006:1,2012-01-05T12:00:00Z,27.8217,-97.2040,0.0,1.4,14.0,2.7,'11111222,11111222,11111222' 
TCOON,ioos:station:TCOON:006:1,2012-01-05T13:00:00Z,27.8217,-97.2040,0.0,1.4,26.0,2.1,'11111222,11111222,11111222' 
TCOON,ioos:station:TCOON:006:1,2012-01-05T14:00:00Z,27.8217,-97.2040,0.0,1.2,12.0,4.1,'11111222,11111222,11111222' 
TCOON,ioos:station:TCOON:006:1,2012-01-05T15:00:00Z,27.8217,-97.2040,0.0,2.7,35.0,4.6,'11111222,11111222,11111222' 
TCOON,ioos:station:TCOON:006:1,2012-01-05T16:00:00Z,27.8217,-97.2040,0.0,3.0,51.0,3.9,'11111222,11111222,11111222' 
TCOON,ioos:station:TCOON:006:1,2012-01-05T17:00:00Z,27.8217,-97.2040,0.0,2.2,78.0,2.9,'11111222,11111222,11111222' 
TCOON,ioos:station:TCOON:006:1,2012-01-05T18:00:00Z,27.8217,-97.2040,0.0,2.6,53.0,3.5,'11111222,11111222,11111222' 
TCOON,ioos:station:TCOON:006:1,2012-01-05T19:00:00Z,27.8217,-97.2040,0.0,3.8,61.0,4.5,'11111222,11111222,11111222' 
TCOON,ioos:station:TCOON:006:1,2012-01-05T20:00:00Z,27.8217,-97.2040,0.0,2.3,84.0,2.7,'11111222,11111222,11111222' 
TCOON,ioos:station:TCOON:006:1,2012-01-05T21:00:00Z,27.8217,-97.2040,0.0,2.8,89.0,4.4,'11111222,11111222,11111222' 
TCOON,ioos:station:TCOON:006:1,2012-01-05T22:00:00Z,27.8217,-97.2040,0.0,2.0,87.0,2.9,'11111222,11111222,11111222' 
TCOON,ioos:station:TCOON:006:1,2012-01-05T23:00:00Z,27.8217,-97.2040,0.0,1.5,95.0,1.9,'11111222,11111222,11111222' 
TCOON,ioos:station:TCOON:006:1,2012-01-06T00:00:00Z,27.8217,-97.2040,0.0,2.2,107.0,2.4,'11111222,11111222,11111222' 
TCOON,ioos:station:TCOON:006:1,2012-01-06T01:00:00Z,27.8217,-97.2040,0.0,1.5,62.0,1.8,'11111222,11111222,11111222' 
TCOON,ioos:station:TCOON:006:1,2012-01-06T02:00:00Z,27.8217,-97.2040,0.0,1.9,130.0,2.1,'11111222,11111222,11111222' 
TCOON,ioos:station:TCOON:006:1,2012-01-06T03:00:00Z,27.8217,-97.2040,0.0,3.3,155.0,4.7,'11111222,11111222,11111222' 
TCOON,ioos:station:TCOON:006:1,2012-01-06T04:00:00Z,27.8217,-97.2040,0.0,3.4,167.0,3.8,'11111222,11111222,11111222' 
TCOON,ioos:station:TCOON:006:1,2012-01-06T05:00:00Z,27.8217,-97.2040,0.0,2.4,184.0,2.7,'11111222,11111222,11111222' 
TCOON,ioos:station:TCOON:006:1,2012-01-06T06:00:00Z,27.8217,-97.2040,0.0,2.7,237.0,3.0,'11111222,11111222,11111222' 
TCOON,ioos:station:TCOON:006:1,2012-01-06T07:00:00Z,27.8217,-97.2040,0.0,2.7,166.0,3.6,'11111222,11111222,11111222' 
TCOON,ioos:station:TCOON:006:1,2012-01-06T08:00:00Z,27.8217,-97.2040,0.0,2.8,190.0,3.2,'11111222,11111222,11111222' 
TCOON,ioos:station:TCOON:006:1,2012-01-06T09:00:00Z,27.8217,-97.2040,0.0,3.0,208.0,3.1,'11111222,11111222,11111222' 
TCOON,ioos:station:TCOON:006:1,2012-01-06T10:00:00Z,27.8217,-97.2040,0.0,2.3,207.0,2.5,'11111222,11111222,11111222' 
TCOON,ioos:station:TCOON:006:1,2012-01-06T11:00:00Z,27.8217,-97.2040,0.0,2.5,192.0,3.2,'11111222,11111222,11111222' 
TCOON,ioos:station:TCOON:006:1,2012-01-06T12:00:00Z,27.8217,-97.2040,0.0,0.3,203.0,0.9,'11111222,11111222,11111222' 
TCOON,ioos:station:TCOON:006:1,2012-01-06T13:00:00Z,27.8217,-97.2040,0.0,0.9,134.0,1.4,'11111222,11111222,11111222' 
TCOON,ioos:station:TCOON:006:1,2012-01-06T14:00:00Z,27.8217,-97.2040,0.0,1.1,146.0,1.9,'11111222,11111222,11111222' 
TCOON,ioos:station:TCOON:006:1,2012-01-06T15:00:00Z,27.8217,-97.2040,0.0,2.3,165.0,2.8,'11111222,11111222,11111222' 
TCOON,ioos:station:TCOON:006:1,2012-01-06T16:00:00Z,27.8217,-97.2040,0.0,2.1,158.0,2.8,'11111222,11111222,11111222' 
TCOON,ioos:station:TCOON:006:1,2012-01-06T17:00:00Z,27.8217,-97.2040,0.0,1.0,137.0,2.1,'11111222,11111222,11111222' 
TCOON,ioos:station:TCOON:006:1,2012-01-06T18:00:00Z,27.8217,-97.2040,0.0,3.6,131.0,5.1,'11111222,11111222,11111222' 
TCOON,ioos:station:TCOON:006:1,2012-01-06T19:00:00Z,27.8217,-97.2040,0.0,4.2,154.0,5.0,'11111222,11111222,11111222' 
TCOON,ioos:station:TCOON:006:1,2012-01-06T20:00:00Z,27.8217,-97.2040,0.0,6.3,155.0,8.3,'11111222,11111222,11111222' 
TCOON,ioos:station:TCOON:006:1,2012-01-06T21:00:00Z,27.8217,-97.2040,0.0,7.1,154.0,8.3,'11111222,11111222,11111222' 
TCOON,ioos:station:TCOON:006:1,2012-01-06T22:00:00Z,27.8217,-97.2040,0.0,3.7,145.0,5.3,'11111222,11111222,11111222' 
TCOON,ioos:station:TCOON:006:1,2012-01-06T23:00:00Z,27.8217,-97.2040,0.0,3.8,147.0,6.6,'11111222,11111222,11111222' 
TCOON,ioos:station:TCOON:006:1,2012-01-07T00:00:00Z,27.8217,-97.2040,0.0,3.6,140.0,5.8,'11111222,11111222,11111222' 
TCOON,ioos:station:TCOON:006:1,2012-01-07T01:00:00Z,27.8217,-97.2040,0.0,4.9,153.0,6.5,'11111222,11111222,11111222' 
TCOON,ioos:station:TCOON:006:1,2012-01-07T02:00:00Z,27.8217,-97.2040,0.0,4.9,157.0,6.0,'11111222,11111222,11111222' 
TCOON,ioos:station:TCOON:006:1,2012-01-07T03:00:00Z,27.8217,-97.2040,0.0,4.0,164.0,5.2,'11111222,11111222,11111222' 
TCOON,ioos:station:TCOON:006:1,2012-01-07T04:00:00Z,27.8217,-97.2040,0.0,2.5,151.0,3.9,'11111222,11111222,11111222' 
TCOON,ioos:station:TCOON:006:1,2012-01-07T05:00:00Z,27.8217,-97.2040,0.0,3.3,156.0,4.1,'11111222,11111222,11111222' 
TCOON,ioos:station:TCOON:006:1,2012-01-07T06:00:00Z,27.8217,-97.2040,0.0,1.5,137.0,2.3,'11111222,11111222,11111222' 
TCOON,ioos:station:TCOON:006:1,2012-01-07T07:00:00Z,27.8217,-97.2040,0.0,1.6,166.0,2.3,'11111222,11111222,11111222' 
TCOON,ioos:station:TCOON:006:1,2012-01-07T08:00:00Z,27.8217,-97.2040,0.0,2.1,152.0,3.0,'11111222,11111222,11111222' 
TCOON,ioos:station:TCOON:006:1,2012-01-07T09:00:00Z,27.8217,-97.2040,0.0,2.6,159.0,3.3,'11111222,11111222,11111222' 
TCOON,ioos:station:TCOON:006:1,2012-01-07T10:00:00Z,27.8217,-97.2040,0.0,2.1,160.0,2.9,'11111222,11111222,11111222' 
TCOON,ioos:station:TCOON:006:1,2012-01-07T11:00:00Z,27.8217,-97.2040,0.0,1.7,145.0,2.8,'11111222,11111222,11111222' 
TCOON,ioos:station:TCOON:006:1,2012-01-07T12:00:00Z,27.8217,-97.2040,0.0,1.3,142.0,2.5,'11111222,11111222,11111222' 
TCOON,ioos:station:TCOON:006:1,2012-01-07T13:00:00Z,27.8217,-97.2040,0.0,2.3,165.0,3.0,'11111222,11111222,11111222' 
TCOON,ioos:station:TCOON:006:1,2012-01-07T14:00:00Z,27.8217,-97.2040,0.0,2.8,179.0,3.3,'11111222,11111222,11111222' 
TCOON,ioos:station:TCOON:006:1,2012-01-07T15:00:00Z,27.8217,-97.2040,0.0,2.7,193.0,3.6,'11111222,11111222,11111222' 
TCOON,ioos:station:TCOON:006:1,2012-01-07T16:00:00Z,27.8217,-97.2040,0.0,3.5,186.0,4.6,'11111222,11111222,11111222' 
TCOON,ioos:station:TCOON:006:1,2012-01-07T17:00:00Z,27.8217,-97.2040,0.0,2.1,208.0,3.2,'11111222,11111222,11111222' 
TCOON,ioos:station:TCOON:006:1,2012-01-07T18:00:00Z,27.8217,-97.2040,0.0,0.8,142.0,1.1,'11111222,11111222,11111222' 
TCOON,ioos:station:TCOON:006:1,2012-01-07T19:00:00Z,27.8217,-97.2040,0.0,2.2,199.0,2.3,'11111222,11111222,11111222' 
TCOON,ioos:station:TCOON:006:1,2012-01-07T20:00:00Z,27.8217,-97.2040,0.0,1.9,108.0,2.9,'11111222,11111222,11111222' 
TCOON,ioos:station:TCOON:006:1,2012-01-07T21:00:00Z,27.8217,-97.2040,0.0,2.8,119.0,3.8,'11111222,11111222,11111222' 
TCOON,ioos:station:TCOON:006:1,2012-01-07T22:00:00Z,27.8217,-97.2040,0.0,1.8,108.0,3.8,'11111222,11111222,11111222' 
TCOON,ioos:station:TCOON:006:1,2012-01-07T23:00:00Z,27.8217,-97.2040,0.0,1.4,87.0,2.6,'11111222,11111222,11111222' 
TCOON,ioos:station:TCOON:006:1,2012-01-08T00:00:00Z,27.8217,-97.2040,0.0,1.2,83.0,2.8,'11111222,11111222,11111222' 
TCOON,ioos:station:TCOON:006:1,2012-01-08T01:00:00Z,27.8217,-97.2040,0.0,1.8,106.0,3.2,'11111222,11111222,11111222' 
TCOON,ioos:station:TCOON:006:1,2012-01-08T02:00:00Z,27.8217,-97.2040,0.0,2.1,123.0,3.9,'11111222,11111222,11111222' 
TCOON,ioos:station:TCOON:006:1,2012-01-08T03:00:00Z,27.8217,-97.2040,0.0,5.1,162.0,6.8,'11111222,11111222,11111222' 
TCOON,ioos:station:TCOON:006:1,2012-01-08T04:00:00Z,27.8217,-97.2040,0.0,4.7,167.0,6.0,'11111222,11111222,11111222' 
TCOON,ioos:station:TCOON:006:1,2012-01-08T05:00:00Z,27.8217,-97.2040,0.0,3.7,164.0,4.8,'11111222,11111222,11111222' 
TCOON,ioos:station:TCOON:006:1,2012-01-08T06:00:00Z,27.8217,-97.2040,0.0,3.4,164.0,4.0,'11111222,11111222,11111222' 
TCOON,ioos:station:TCOON:006:1,2012-01-08T07:00:00Z,27.8217,-97.2040,0.0,3.1,162.0,4.1,'11111222,11111222,11111222' 
TCOON,ioos:station:TCOON:006:1,2012-01-08T08:00:00Z,27.8217,-97.2040,0.0,3.9,168.0,4.7,'11111222,11111222,11111222' 
TCOON,ioos:station:TCOON:006:1,2012-01-08T09:00:00Z,27.8217,-97.2040,0.0,2.3,175.0,3.8,'11111222,11111222,11111222' 
TCOON,ioos:station:TCOON:006:1,2012-01-08T10:00:00Z,27.8217,-97.2040,0.0,1.0,168.0,1.4,'11111222,11111222,11111222' 
TCOON,ioos:station:TCOON:006:1,2012-01-08T11:00:00Z,27.8217,-97.2040,0.0,0.9,87.0,1.3,'11111222,11111222,11111222' 
TCOON,ioos:station:TCOON:006:1,2012-01-08T12:00:00Z,27.8217,-97.2040,0.0,1.0,54.0,1.9,'11111222,11111222,11111222' 
TCOON,ioos:station:TCOON:006:1,2012-01-08T13:00:00Z,27.8217,-97.2040,0.0,1.4,70.0,2.0,'11111222,11111222,11111222' 
TCOON,ioos:station:TCOON:006:1,2012-01-08T14:00:00Z,27.8217,-97.2040,0.0,1.3,79.0,2.1,'11111222,11111222,11111222' 
TCOON,ioos:station:TCOON:006:1,2012-01-08T15:00:00Z,27.8217,-97.2040,0.0,2.3,95.0,3.7,'11111222,11111222,11111222' 
TCOON,ioos:station:TCOON:006:1,2012-01-08T16:00:00Z,27.8217,-97.2040,0.0,3.4,119.0,4.9,'11111222,11111222,11111222' 
TCOON,ioos:station:TCOON:006:1,2012-01-08T17:00:00Z,27.8217,-97.2040,0.0,3.0,99.0,5.6,'11111222,11111222,11111222' 
TCOON,ioos:station:TCOON:006:1,2012-01-08T18:00:00Z,27.8217,-97.2040,0.0,3.5,95.0,6.2,'11111222,11111222,11111222' 
TCOON,ioos:station:TCOON:006:1,2012-01-08T19:00:00Z,27.8217,-97.2040,0.0,3.8,96.0,6.1,'11111222,11111222,11111222' 
TCOON,ioos:station:TCOON:006:1,2012-01-08T20:00:00Z,27.8217,-97.2040,0.0,4.1,94.0,7.0,'11111222,11111222,11111222' 
TCOON,ioos:station:TCOON:006:1,2012-01-08T21:00:00Z,27.8217,-97.2040,0.0,3.9,89.0,6.3,'11111222,11111222,11111222' 
TCOON,ioos:station:TCOON:006:1,2012-01-08T22:00:00Z,27.8217,-97.2040,0.0,4.2,86.0,6.0,'11111222,11111222,11111222' 
TCOON,ioos:station:TCOON:006:1,2012-01-08T23:00:00Z,27.8217,-97.2040,0.0,3.4,68.0,3.8,'11111222,11111222,11111222' 
TCOON,ioos:station:TCOON:006:1,2012-01-09T00:00:00Z,27.8217,-97.2040,0.0,3.9,77.0,5.4,'11111222,11111222,11111222' 
TCOON,ioos:station:TCOON:006:1,2012-01-09T01:00:00Z,27.8217,-97.2040,0.0,4.6,80.0,6.5,'11111222,11111222,11111222' 
TCOON,ioos:station:TCOON:006:1,2012-01-09T02:00:00Z,27.8217,-97.2040,0.0,1.9,60.0,3.5,'11111222,11111222,11111222' 
TCOON,ioos:station:TCOON:006:1,2012-01-09T03:00:00Z,27.8217,-97.2040,0.0,3.9,82.0,5.2,'11111222,11111222,11111222' 
TCOON,ioos:station:TCOON:006:1,2012-01-09T04:00:00Z,27.8217,-97.2040,0.0,3.7,73.0,4.6,'11111222,11111222,11111222' 
TCOON,ioos:station:TCOON:006:1,2012-01-09T05:00:00Z,27.8217,-97.2040,0.0,3.2,67.0,4.5,'11111222,11111222,11111222' 
TCOON,ioos:station:TCOON:006:1,2012-01-09T06:00:00Z,27.8217,-97.2040,0.0,4.8,75.0,6.1,'11111222,11111222,11111222' 
TCOON,ioos:station:TCOON:006:1,2012-01-09T07:00:00Z,27.8217,-97.2040,0.0,4.8,76.0,5.7,'11111222,11111222,11111222' 
TCOON,ioos:station:TCOON:006:1,2012-01-09T08:00:00Z,27.8217,-97.2040,0.0,5.0,98.0,6.7,'11111222,11111222,11111222' 
TCOON,ioos:station:TCOON:006:1,2012-01-09T09:00:00Z,27.8217,-97.2040,0.0,4.9,131.0,7.0,'11111222,11111222,11111222' 
TCOON,ioos:station:TCOON:006:1,2012-01-09T10:00:00Z,27.8217,-97.2040,0.0,3.7,130.0,5.0,'11111222,11111222,11111222' 
TCOON,ioos:station:TCOON:006:1,2012-01-09T11:00:00Z,27.8217,-97.2040,0.0,6.5,204.0,9.0,'11111222,11111222,11111222' 
TCOON,ioos:station:TCOON:006:1,2012-01-09T12:00:00Z,27.8217,-97.2040,0.0,3.4,190.0,4.0,'11111222,11111222,11111222' 
TCOON,ioos:station:TCOON:006:1,2012-01-09T13:00:00Z,27.8217,-97.2040,0.0,3.1,158.0,4.6,'11111222,11111222,11111222' 